Year,Month,Day,Hour,Minute,Value (Times are PST for temperature in C)
2008,07,25,00,00,15.20
2008,07,25,00,01,15.20
2008,07,25,00,02,15.10
2008,07,25,00,03,15.10
2008,07,25,00,04,15.10
2008,07,25,00,05,15.10
2008,07,25,00,06,15.10
2008,07,25,00,07,15.10
2008,07,25,00,08,15.00
2008,07,25,00,09,15.00
2008,07,25,00,10,15.00
2008,07,25,00,11,15.00
2008,07,25,00,12,14.90
2008,07,25,00,13,14.90
2008,07,25,00,14,14.90
2008,07,25,00,15,14.90
2008,07,25,00,16,14.80
2008,07,25,00,17,14.80
2008,07,25,00,18,14.80
2008,07,25,00,19,14.80
2008,07,25,00,20,14.80
2008,07,25,00,21,14.80
2008,07,25,00,22,14.80
2008,07,25,00,23,14.80
2008,07,25,00,24,14.90
2008,07,25,00,25,14.90
2008,07,25,00,26,14.90
2008,07,25,00,27,14.90
2008,07,25,00,28,14.90
2008,07,25,00,29,14.90
2008,07,25,00,30,14.80
2008,07,25,00,31,14.80
2008,07,25,00,32,14.80
2008,07,25,00,33,14.80
2008,07,25,00,34,14.80
2008,07,25,00,35,14.80
2008,07,25,00,36,14.80
2008,07,25,00,37,14.80
2008,07,25,00,38,14.80
2008,07,25,00,39,14.80
2008,07,25,00,40,14.80
2008,07,25,00,41,14.80
2008,07,25,00,42,14.80
2008,07,25,00,43,14.80
2008,07,25,00,44,14.80
2008,07,25,00,45,14.80
2008,07,25,00,46,14.80
2008,07,25,00,47,14.80
2008,07,25,00,48,14.80
2008,07,25,00,49,14.80
2008,07,25,00,50,14.80
2008,07,25,00,51,14.80
2008,07,25,00,52,14.80
2008,07,25,00,53,14.80
2008,07,25,00,54,14.80
2008,07,25,00,55,14.80
2008,07,25,00,56,14.80
2008,07,25,00,57,14.70
2008,07,25,00,58,14.70
2008,07,25,00,59,14.70
2008,07,25,01,00,14.70
2008,07,25,01,01,14.70
2008,07,25,01,02,14.60
2008,07,25,01,03,14.60
2008,07,25,01,04,14.60
2008,07,25,01,05,14.60
2008,07,25,01,06,14.60
2008,07,25,01,07,14.60
2008,07,25,01,08,14.60
2008,07,25,01,09,14.50
2008,07,25,01,10,14.50
2008,07,25,01,11,14.50
2008,07,25,01,12,14.50
2008,07,25,01,13,14.50
2008,07,25,01,14,14.40
2008,07,25,01,15,14.40
2008,07,25,01,16,14.40
2008,07,25,01,17,14.40
2008,07,25,01,18,14.40
2008,07,25,01,19,14.40
2008,07,25,01,20,14.30
2008,07,25,01,21,14.30
2008,07,25,01,22,14.30
2008,07,25,01,23,14.30
2008,07,25,01,24,14.30
2008,07,25,01,25,14.30
2008,07,25,01,26,14.30
2008,07,25,01,27,14.30
2008,07,25,01,28,14.30
2008,07,25,01,29,14.30
2008,07,25,01,30,14.20
2008,07,25,01,31,14.20
2008,07,25,01,32,14.20
2008,07,25,01,33,14.20
2008,07,25,01,34,14.20
2008,07,25,01,35,14.20
2008,07,25,01,36,14.20
2008,07,25,01,37,14.20
2008,07,25,01,38,14.20
2008,07,25,01,39,14.20
2008,07,25,01,40,14.20
2008,07,25,01,41,14.20
2008,07,25,01,42,14.20
2008,07,25,01,43,14.20
2008,07,25,01,44,14.10
2008,07,25,01,45,14.10
2008,07,25,01,46,14.10
2008,07,25,01,47,14.10
2008,07,25,01,48,14.00
2008,07,25,01,49,14.00
2008,07,25,01,50,14.00
2008,07,25,01,51,13.90
2008,07,25,01,52,13.90
2008,07,25,01,53,13.90
2008,07,25,01,54,13.90
2008,07,25,01,55,13.90
2008,07,25,01,56,13.90
2008,07,25,01,57,13.80
2008,07,25,01,58,13.80
2008,07,25,01,59,13.80
2008,07,25,02,00,13.80
2008,07,25,02,01,13.80
2008,07,25,02,02,13.70
2008,07,25,02,03,13.70
2008,07,25,02,04,13.70
2008,07,25,02,05,13.70
2008,07,25,02,06,13.70
2008,07,25,02,07,13.70
2008,07,25,02,08,13.70
2008,07,25,02,09,13.70
2008,07,25,02,10,13.70
2008,07,25,02,11,13.60
2008,07,25,02,12,13.60
2008,07,25,02,13,13.60
2008,07,25,02,14,13.60
2008,07,25,02,15,13.60
2008,07,25,02,16,13.50
2008,07,25,02,17,13.50
2008,07,25,02,18,13.50
2008,07,25,02,19,13.50
2008,07,25,02,20,13.50
2008,07,25,02,21,13.50
2008,07,25,02,22,13.50
2008,07,25,02,23,13.40
2008,07,25,02,24,13.40
2008,07,25,02,25,13.40
2008,07,25,02,26,13.40
2008,07,25,02,27,13.40
2008,07,25,02,28,13.40
2008,07,25,02,29,13.40
2008,07,25,02,30,13.40
2008,07,25,02,31,13.40
2008,07,25,02,32,13.40
2008,07,25,02,33,13.40
2008,07,25,02,34,13.40
2008,07,25,02,35,13.40
2008,07,25,02,36,13.40
2008,07,25,02,37,13.30
2008,07,25,02,38,13.30
2008,07,25,02,39,13.30
2008,07,25,02,40,13.30
2008,07,25,02,41,13.30
2008,07,25,02,42,13.30
2008,07,25,02,43,13.30
2008,07,25,02,44,13.30
2008,07,25,02,45,13.30
2008,07,25,02,46,13.30
2008,07,25,02,47,13.30
2008,07,25,02,48,13.30
2008,07,25,02,49,13.30
2008,07,25,02,50,13.20
2008,07,25,02,51,13.20
2008,07,25,02,52,13.20
2008,07,25,02,53,13.20
2008,07,25,02,54,13.20
2008,07,25,02,55,13.20
2008,07,25,02,56,13.10
2008,07,25,02,57,13.10
2008,07,25,02,58,13.10
2008,07,25,02,59,13.10
2008,07,25,03,00,13.10
2008,07,25,03,01,13.10
2008,07,25,03,02,13.10
2008,07,25,03,03,13.10
2008,07,25,03,04,13.10
2008,07,25,03,05,13.10
2008,07,25,03,06,13.10
2008,07,25,03,07,13.10
2008,07,25,03,08,13.10
2008,07,25,03,09,13.10
2008,07,25,03,10,13.10
2008,07,25,03,11,13.10
2008,07,25,03,12,13.10
2008,07,25,03,13,13.10
2008,07,25,03,14,13.00
2008,07,25,03,15,13.00
2008,07,25,03,16,13.00
2008,07,25,03,17,13.00
2008,07,25,03,18,12.90
2008,07,25,03,19,12.90
2008,07,25,03,20,12.80
2008,07,25,03,21,12.80
2008,07,25,03,22,12.80
2008,07,25,03,23,12.80
2008,07,25,03,24,12.70
2008,07,25,03,25,12.70
2008,07,25,03,26,12.70
2008,07,25,03,27,12.60
2008,07,25,03,28,12.60
2008,07,25,03,29,12.60
2008,07,25,03,30,12.60
2008,07,25,03,31,12.60
2008,07,25,03,32,12.60
2008,07,25,03,33,12.60
2008,07,25,03,34,12.50
2008,07,25,03,35,12.50
2008,07,25,03,36,12.50
2008,07,25,03,37,12.50
2008,07,25,03,38,12.50
2008,07,25,03,39,12.50
2008,07,25,03,40,12.50
2008,07,25,03,41,12.50
2008,07,25,03,42,12.50
2008,07,25,03,43,12.50
2008,07,25,03,44,12.50
2008,07,25,03,45,12.50
2008,07,25,03,46,12.40
2008,07,25,03,47,12.40
2008,07,25,03,48,12.40
2008,07,25,03,49,12.30
2008,07,25,03,50,12.30
2008,07,25,03,51,12.30
2008,07,25,03,52,12.20
2008,07,25,03,53,12.20
2008,07,25,03,54,12.10
2008,07,25,03,55,12.10
2008,07,25,03,56,12.10
2008,07,25,03,57,12.10
2008,07,25,03,58,12.10
2008,07,25,03,59,12.10
2008,07,25,04,00,12.10
2008,07,25,04,01,12.10
2008,07,25,04,02,12.10
2008,07,25,04,03,12.10
2008,07,25,04,04,12.10
2008,07,25,04,05,12.10
2008,07,25,04,06,12.10
2008,07,25,04,07,12.10
2008,07,25,04,08,12.10
2008,07,25,04,09,12.00
2008,07,25,04,10,12.00
2008,07,25,04,11,12.00
2008,07,25,04,12,11.90
2008,07,25,04,13,11.90
2008,07,25,04,14,11.80
2008,07,25,04,15,11.80
2008,07,25,04,16,11.80
2008,07,25,04,17,11.80
2008,07,25,04,18,11.80
2008,07,25,04,19,11.70
2008,07,25,04,20,11.70
2008,07,25,04,21,11.60
2008,07,25,04,22,11.60
2008,07,25,04,23,11.60
2008,07,25,04,24,11.60
2008,07,25,04,25,11.60
2008,07,25,04,26,11.60
2008,07,25,04,27,11.60
2008,07,25,04,28,11.60
2008,07,25,04,29,11.40
2008,07,25,04,30,11.40
2008,07,25,04,31,11.40
2008,07,25,04,32,11.40
2008,07,25,04,33,11.40
2008,07,25,04,34,11.40
2008,07,25,04,35,11.40
2008,07,25,04,36,11.40
2008,07,25,04,37,11.40
2008,07,25,04,38,11.30
2008,07,25,04,39,11.30
2008,07,25,04,40,11.30
2008,07,25,04,41,11.30
2008,07,25,04,42,11.30
2008,07,25,04,43,11.30
2008,07,25,04,44,11.30
2008,07,25,04,45,11.30
2008,07,25,04,46,11.20
2008,07,25,04,47,11.20
2008,07,25,04,48,11.20
2008,07,25,04,49,11.20
2008,07,25,04,50,11.20
2008,07,25,04,51,11.20
2008,07,25,04,52,11.20
2008,07,25,04,53,11.20
2008,07,25,04,54,11.20
2008,07,25,04,55,11.10
2008,07,25,04,56,11.10
2008,07,25,04,57,11.10
2008,07,25,04,58,11.10
2008,07,25,04,59,11.10
2008,07,25,05,00,11.10
2008,07,25,05,01,11.10
2008,07,25,05,02,11.10
2008,07,25,05,03,11.10
2008,07,25,05,04,11.10
2008,07,25,05,05,11.10
2008,07,25,05,06,11.10
2008,07,25,05,07,11.10
2008,07,25,05,08,11.10
2008,07,25,05,09,11.10
2008,07,25,05,10,11.10
2008,07,25,05,11,11.00
2008,07,25,05,12,11.00
2008,07,25,05,13,11.10
2008,07,25,05,14,11.00
2008,07,25,05,15,11.00
2008,07,25,05,16,10.90
2008,07,25,05,17,10.90
2008,07,25,05,18,10.90
2008,07,25,05,19,10.90
2008,07,25,05,20,10.90
2008,07,25,05,21,10.90
2008,07,25,05,22,10.90
2008,07,25,05,23,10.90
2008,07,25,05,24,10.90
2008,07,25,05,25,10.90
2008,07,25,05,26,10.90
2008,07,25,05,27,10.90
2008,07,25,05,28,10.90
2008,07,25,05,29,10.90
2008,07,25,05,30,10.90
2008,07,25,05,31,10.90
2008,07,25,05,32,10.90
2008,07,25,05,33,10.90
2008,07,25,05,34,10.90
2008,07,25,05,35,10.90
2008,07,25,05,36,10.90
2008,07,25,05,37,10.90
2008,07,25,05,38,10.90
2008,07,25,05,39,10.90
2008,07,25,05,40,10.90
2008,07,25,05,41,10.90
2008,07,25,05,42,10.90
2008,07,25,05,43,10.90
2008,07,25,05,44,10.90
2008,07,25,05,45,10.90
2008,07,25,05,46,10.90
2008,07,25,05,47,10.90
2008,07,25,05,48,10.90
2008,07,25,05,49,10.90
2008,07,25,05,50,10.90
2008,07,25,05,51,10.90
2008,07,25,05,52,10.90
2008,07,25,05,53,10.90
2008,07,25,05,54,11.00
2008,07,25,05,55,11.10
2008,07,25,05,56,11.10
2008,07,25,05,57,11.10
2008,07,25,05,58,11.10
2008,07,25,05,59,11.00
2008,07,25,06,00,11.10
2008,07,25,06,01,11.10
2008,07,25,06,02,11.10
2008,07,25,06,03,11.10
2008,07,25,06,04,11.10
2008,07,25,06,05,11.10
2008,07,25,06,06,11.10
2008,07,25,06,07,11.10
2008,07,25,06,08,11.10
2008,07,25,06,09,11.10
2008,07,25,06,10,11.10
2008,07,25,06,11,11.10
2008,07,25,06,12,11.10
2008,07,25,06,13,11.10
2008,07,25,06,14,11.10
2008,07,25,06,15,11.10
2008,07,25,06,16,11.10
2008,07,25,06,17,11.10
2008,07,25,06,18,11.10
2008,07,25,06,19,11.10
2008,07,25,06,20,11.10
2008,07,25,06,21,11.10
2008,07,25,06,22,11.10
2008,07,25,06,23,11.10
2008,07,25,06,24,11.10
2008,07,25,06,25,11.10
2008,07,25,06,26,11.10
2008,07,25,06,27,11.10
2008,07,25,06,28,11.10
2008,07,25,06,29,11.10
2008,07,25,06,30,11.10
2008,07,25,06,31,11.10
2008,07,25,06,32,11.20
2008,07,25,06,33,11.20
2008,07,25,06,34,11.20
2008,07,25,06,35,11.20
2008,07,25,06,36,11.20
2008,07,25,06,37,11.20
2008,07,25,06,38,11.30
2008,07,25,06,39,11.30
2008,07,25,06,40,11.30
2008,07,25,06,41,11.30
2008,07,25,06,42,11.40
2008,07,25,06,43,11.40
2008,07,25,06,44,11.40
2008,07,25,06,45,11.40
2008,07,25,06,46,11.40
2008,07,25,06,47,11.50
2008,07,25,06,48,11.60
2008,07,25,06,49,11.60
2008,07,25,06,50,11.60
2008,07,25,06,51,11.60
2008,07,25,06,52,11.60
2008,07,25,06,53,11.70
2008,07,25,06,54,11.70
2008,07,25,06,55,11.70
2008,07,25,06,56,11.80
2008,07,25,06,57,11.80
2008,07,25,06,58,11.80
2008,07,25,06,59,11.90
2008,07,25,07,00,11.90
2008,07,25,07,01,11.90
2008,07,25,07,02,12.00
2008,07,25,07,03,12.00
2008,07,25,07,04,12.00
2008,07,25,07,05,12.10
2008,07,25,07,06,12.10
2008,07,25,07,07,12.10
2008,07,25,07,08,12.10
2008,07,25,07,09,12.20
2008,07,25,07,10,12.20
2008,07,25,07,11,12.20
2008,07,25,07,12,12.30
2008,07,25,07,13,12.30
2008,07,25,07,14,12.30
2008,07,25,07,15,12.30
2008,07,25,07,16,12.30
2008,07,25,07,17,12.30
2008,07,25,07,18,12.40
2008,07,25,07,19,12.40
2008,07,25,07,20,12.40
2008,07,25,07,21,12.50
2008,07,25,07,22,12.50
2008,07,25,07,23,12.50
2008,07,25,07,24,12.50
2008,07,25,07,25,12.50
2008,07,25,07,26,12.60
2008,07,25,07,27,12.60
2008,07,25,07,28,12.60
2008,07,25,07,29,12.70
2008,07,25,07,30,12.70
2008,07,25,07,31,12.70
2008,07,25,07,32,12.70
2008,07,25,07,33,12.80
2008,07,25,07,34,12.80
2008,07,25,07,35,12.80
2008,07,25,07,36,12.80
2008,07,25,07,37,12.80
2008,07,25,07,38,12.80
2008,07,25,07,39,12.80
2008,07,25,07,40,12.90
2008,07,25,07,41,12.90
2008,07,25,07,42,13.00
2008,07,25,07,43,13.00
2008,07,25,07,44,13.10
2008,07,25,07,45,13.10
2008,07,25,07,46,13.10
2008,07,25,07,47,13.10
2008,07,25,07,48,13.10
2008,07,25,07,49,13.00
2008,07,25,07,50,13.00
2008,07,25,07,51,13.10
2008,07,25,07,52,13.10
2008,07,25,07,53,13.20
2008,07,25,07,54,13.20
2008,07,25,07,55,13.30
2008,07,25,07,56,13.30
2008,07,25,07,57,13.30
2008,07,25,07,58,13.40
2008,07,25,07,59,13.40
2008,07,25,08,00,13.30
2008,07,25,08,01,13.30
2008,07,25,08,02,13.30
2008,07,25,08,03,13.30
2008,07,25,08,04,13.30
2008,07,25,08,05,13.30
2008,07,25,08,06,13.30
2008,07,25,08,07,13.30
2008,07,25,08,08,13.40
2008,07,25,08,09,13.40
2008,07,25,08,10,13.50
2008,07,25,08,11,13.50
2008,07,25,08,12,13.60
2008,07,25,08,13,13.60
2008,07,25,08,14,13.70
2008,07,25,08,15,13.70
2008,07,25,08,16,13.80
2008,07,25,08,17,13.80
2008,07,25,08,18,13.80
2008,07,25,08,19,13.80
2008,07,25,08,20,13.70
2008,07,25,08,21,13.70
2008,07,25,08,22,13.70
2008,07,25,08,23,13.80
2008,07,25,08,24,13.80
2008,07,25,08,25,13.80
2008,07,25,08,26,13.80
2008,07,25,08,27,13.80
2008,07,25,08,28,13.90
2008,07,25,08,29,13.90
2008,07,25,08,30,14.10
2008,07,25,08,31,14.10
2008,07,25,08,32,14.10
2008,07,25,08,33,14.10
2008,07,25,08,34,14.00
2008,07,25,08,35,14.10
2008,07,25,08,36,14.10
2008,07,25,08,37,14.10
2008,07,25,08,38,14.20
2008,07,25,08,39,14.20
2008,07,25,08,40,14.30
2008,07,25,08,41,14.30
2008,07,25,08,42,14.30
2008,07,25,08,43,14.30
2008,07,25,08,44,14.20
2008,07,25,08,45,14.20
2008,07,25,08,46,14.30
2008,07,25,08,47,14.30
2008,07,25,08,48,14.40
2008,07,25,08,49,14.50
2008,07,25,08,50,14.50
2008,07,25,08,51,14.60
2008,07,25,08,52,14.60
2008,07,25,08,53,14.60
2008,07,25,08,54,14.70
2008,07,25,08,55,14.80
2008,07,25,08,56,14.90
2008,07,25,08,57,15.00
2008,07,25,08,58,15.00
2008,07,25,08,59,15.10
2008,07,25,09,00,15.00
2008,07,25,09,01,15.00
2008,07,25,09,02,15.00
2008,07,25,09,03,14.90
2008,07,25,09,04,14.90
2008,07,25,09,05,14.90
2008,07,25,09,06,14.90
2008,07,25,09,07,15.00
2008,07,25,09,08,15.00
2008,07,25,09,09,15.10
2008,07,25,09,10,15.20
2008,07,25,09,11,15.30
2008,07,25,09,12,15.30
2008,07,25,09,13,15.30
2008,07,25,09,14,15.30
2008,07,25,09,15,15.30
2008,07,25,09,16,15.30
2008,07,25,09,17,15.30
2008,07,25,09,18,15.30
2008,07,25,09,19,15.30
2008,07,25,09,20,15.30
2008,07,25,09,21,15.50
2008,07,25,09,22,15.50
2008,07,25,09,23,15.60
2008,07,25,09,24,15.60
2008,07,25,09,25,15.60
2008,07,25,09,26,15.60
2008,07,25,09,27,15.60
2008,07,25,09,28,15.50
2008,07,25,09,29,15.40
2008,07,25,09,30,15.40
2008,07,25,09,31,15.50
2008,07,25,09,32,15.50
2008,07,25,09,33,15.60
2008,07,25,09,34,15.70
2008,07,25,09,35,15.80
2008,07,25,09,36,15.80
2008,07,25,09,37,15.80
2008,07,25,09,38,15.80
2008,07,25,09,39,15.80
2008,07,25,09,40,15.80
2008,07,25,09,41,15.80
2008,07,25,09,42,15.80
2008,07,25,09,43,15.80
2008,07,25,09,44,15.80
2008,07,25,09,45,15.80
2008,07,25,09,46,15.80
2008,07,25,09,47,15.90
2008,07,25,09,48,16.10
2008,07,25,09,49,16.20
2008,07,25,09,50,16.20
2008,07,25,09,51,16.30
2008,07,25,09,52,16.40
2008,07,25,09,53,16.40
2008,07,25,09,54,16.40
2008,07,25,09,55,16.40
2008,07,25,09,56,16.40
2008,07,25,09,57,16.40
2008,07,25,09,58,16.40
2008,07,25,09,59,16.40
2008,07,25,10,00,16.40
2008,07,25,10,01,16.30
2008,07,25,10,02,16.30
2008,07,25,10,03,16.40
2008,07,25,10,04,16.40
2008,07,25,10,05,16.40
2008,07,25,10,06,16.50
2008,07,25,10,07,16.40
2008,07,25,10,08,16.40
2008,07,25,10,09,16.40
2008,07,25,10,10,16.40
2008,07,25,10,11,16.40
2008,07,25,10,12,16.40
2008,07,25,10,13,16.40
2008,07,25,10,14,16.50
2008,07,25,10,15,16.60
2008,07,25,10,16,16.60
2008,07,25,10,17,16.70
2008,07,25,10,18,16.70
2008,07,25,10,19,16.70
2008,07,25,10,20,16.70
2008,07,25,10,21,16.70
2008,07,25,10,22,16.80
2008,07,25,10,23,16.90
2008,07,25,10,24,16.90
2008,07,25,10,25,17.00
2008,07,25,10,26,17.00
2008,07,25,10,27,17.00
2008,07,25,10,28,17.10
2008,07,25,10,29,17.00
2008,07,25,10,30,17.00
2008,07,25,10,31,17.00
2008,07,25,10,32,17.00
2008,07,25,10,33,17.00
2008,07,25,10,34,17.10
2008,07,25,10,35,17.10
2008,07,25,10,36,17.10
2008,07,25,10,37,17.30
2008,07,25,10,38,17.30
2008,07,25,10,39,17.40
2008,07,25,10,40,17.40
2008,07,25,10,41,17.50
2008,07,25,10,42,17.50
2008,07,25,10,43,17.40
2008,07,25,10,44,17.30
2008,07,25,10,45,17.30
2008,07,25,10,46,17.30
2008,07,25,10,47,17.30
2008,07,25,10,48,17.30
2008,07,25,10,49,17.30
2008,07,25,10,50,17.40
2008,07,25,10,51,17.40
2008,07,25,10,52,17.40
2008,07,25,10,53,17.40
2008,07,25,10,54,17.40
2008,07,25,10,55,17.30
2008,07,25,10,56,17.20
2008,07,25,10,57,17.20
2008,07,25,10,58,17.10
2008,07,25,10,59,17.10
2008,07,25,11,00,17.00
2008,07,25,11,01,17.00
2008,07,25,11,02,17.10
2008,07,25,11,03,17.20
2008,07,25,11,04,17.20
2008,07,25,11,05,17.20
2008,07,25,11,06,17.20
2008,07,25,11,07,17.20
2008,07,25,11,08,17.20
2008,07,25,11,09,17.30
2008,07,25,11,10,17.30
2008,07,25,11,11,17.30
2008,07,25,11,12,17.30
2008,07,25,11,13,17.30
2008,07,25,11,14,17.30
2008,07,25,11,15,17.30
2008,07,25,11,16,17.30
2008,07,25,11,17,17.30
2008,07,25,11,18,17.30
2008,07,25,11,19,17.30
2008,07,25,11,20,17.30
2008,07,25,11,21,17.40
2008,07,25,11,22,17.40
2008,07,25,11,23,17.30
2008,07,25,11,24,17.30
2008,07,25,11,25,17.30
2008,07,25,11,26,17.30
2008,07,25,11,27,17.30
2008,07,25,11,28,17.30
2008,07,25,11,29,17.30
2008,07,25,11,30,17.20
2008,07,25,11,31,17.20
2008,07,25,11,32,17.20
2008,07,25,11,33,17.30
2008,07,25,11,34,17.30
2008,07,25,11,35,17.40
2008,07,25,11,36,17.40
2008,07,25,11,37,17.40
2008,07,25,11,38,17.40
2008,07,25,11,39,17.40
2008,07,25,11,40,17.40
2008,07,25,11,41,17.40
2008,07,25,11,42,17.50
2008,07,25,11,43,17.50
2008,07,25,11,44,17.50
2008,07,25,11,45,17.50
2008,07,25,11,46,17.40
2008,07,25,11,47,17.50
2008,07,25,11,48,17.40
2008,07,25,11,49,17.40
2008,07,25,11,50,17.30
2008,07,25,11,51,17.30
2008,07,25,11,52,17.30
2008,07,25,11,53,17.30
2008,07,25,11,54,17.30
2008,07,25,11,55,17.40
2008,07,25,11,56,17.50
2008,07,25,11,57,17.50
2008,07,25,11,58,17.60
2008,07,25,11,59,17.60
2008,07,25,12,00,17.70
2008,07,25,12,01,17.80
2008,07,25,12,02,17.90
2008,07,25,12,03,17.90
2008,07,25,12,04,18.10
2008,07,25,12,05,18.10
2008,07,25,12,06,18.10
2008,07,25,12,07,18.00
2008,07,25,12,08,17.90
2008,07,25,12,09,17.90
2008,07,25,12,10,17.90
2008,07,25,12,11,17.90
2008,07,25,12,12,17.90
2008,07,25,12,13,17.90
2008,07,25,12,14,17.90
2008,07,25,12,15,17.90
2008,07,25,12,16,17.90
2008,07,25,12,17,17.90
2008,07,25,12,18,17.90
2008,07,25,12,19,17.90
2008,07,25,12,20,17.90
2008,07,25,12,21,17.90
2008,07,25,12,22,17.90
2008,07,25,12,23,17.90
2008,07,25,12,24,17.90
2008,07,25,12,25,17.90
2008,07,25,12,26,17.90
2008,07,25,12,27,17.90
2008,07,25,12,28,18.00
2008,07,25,12,29,18.10
2008,07,25,12,30,18.20
2008,07,25,12,31,18.30
2008,07,25,12,32,18.30
2008,07,25,12,33,18.40
2008,07,25,12,34,18.40
2008,07,25,12,35,18.40
2008,07,25,12,36,18.40
2008,07,25,12,37,18.40
2008,07,25,12,38,18.40
2008,07,25,12,39,18.50
2008,07,25,12,40,18.50
2008,07,25,12,41,18.60
2008,07,25,12,42,18.60
2008,07,25,12,43,18.60
2008,07,25,12,44,18.60
2008,07,25,12,45,18.70
2008,07,25,12,46,18.80
2008,07,25,12,47,18.90
2008,07,25,12,48,19.00
2008,07,25,12,49,19.20
2008,07,25,12,50,19.40
2008,07,25,12,51,19.50
2008,07,25,12,52,19.50
2008,07,25,12,53,19.60
2008,07,25,12,54,19.60
2008,07,25,12,55,19.60
2008,07,25,12,56,19.40
2008,07,25,12,57,19.40
2008,07,25,12,58,19.30
2008,07,25,12,59,19.30
2008,07,25,13,00,19.30
2008,07,25,13,01,19.20
2008,07,25,13,02,19.30
2008,07,25,13,03,19.20
2008,07,25,13,04,19.20
2008,07,25,13,05,19.10
2008,07,25,13,06,19.30
2008,07,25,13,07,19.40
2008,07,25,13,08,19.40
2008,07,25,13,09,19.40
2008,07,25,13,10,19.60
2008,07,25,13,11,19.60
2008,07,25,13,12,19.70
2008,07,25,13,13,19.70
2008,07,25,13,14,19.80
2008,07,25,13,15,19.90
2008,07,25,13,16,20.10
2008,07,25,13,17,20.30
2008,07,25,13,18,20.40
2008,07,25,13,19,20.40
2008,07,25,13,20,20.50
2008,07,25,13,21,20.50
2008,07,25,13,22,20.50
2008,07,25,13,23,20.50
2008,07,25,13,24,20.50
2008,07,25,13,25,20.50
2008,07,25,13,26,20.60
2008,07,25,13,27,20.50
2008,07,25,13,28,20.50
2008,07,25,13,29,20.50
2008,07,25,13,30,20.40
2008,07,25,13,31,20.40
2008,07,25,13,32,20.30
2008,07,25,13,33,20.30
2008,07,25,13,34,20.30
2008,07,25,13,35,20.30
2008,07,25,13,36,20.40
2008,07,25,13,37,20.50
2008,07,25,13,38,20.50
2008,07,25,13,39,20.70
2008,07,25,13,40,20.80
2008,07,25,13,41,20.80
2008,07,25,13,42,20.80
2008,07,25,13,43,20.80
2008,07,25,13,44,21.00
2008,07,25,13,45,21.00
2008,07,25,13,46,20.90
2008,07,25,13,47,20.80
2008,07,25,13,48,20.80
2008,07,25,13,49,20.70
2008,07,25,13,50,20.70
2008,07,25,13,51,20.80
2008,07,25,13,52,20.90
2008,07,25,13,53,20.90
2008,07,25,13,54,20.80
2008,07,25,13,55,20.70
2008,07,25,13,56,20.80
2008,07,25,13,57,20.80
2008,07,25,13,58,20.80
2008,07,25,13,59,20.90
2008,07,25,14,00,20.80
2008,07,25,14,01,20.70
2008,07,25,14,02,20.70
2008,07,25,14,03,20.60
2008,07,25,14,04,20.60
2008,07,25,14,05,20.60
2008,07,25,14,06,20.60
2008,07,25,14,07,20.60
2008,07,25,14,08,20.60
2008,07,25,14,09,20.50
2008,07,25,14,10,20.60
2008,07,25,14,11,20.50
2008,07,25,14,12,20.60
2008,07,25,14,13,20.60
2008,07,25,14,14,20.60
2008,07,25,14,15,20.60
2008,07,25,14,16,20.60
2008,07,25,14,17,20.50
2008,07,25,14,18,20.40
2008,07,25,14,19,20.30
2008,07,25,14,20,20.30
2008,07,25,14,21,20.30
2008,07,25,14,22,20.20
2008,07,25,14,23,20.10
2008,07,25,14,24,20.10
2008,07,25,14,25,20.10
2008,07,25,14,26,20.10
2008,07,25,14,27,20.10
2008,07,25,14,28,20.20
2008,07,25,14,29,20.20
2008,07,25,14,30,20.20
2008,07,25,14,31,20.20
2008,07,25,14,32,20.20
2008,07,25,14,33,20.20
2008,07,25,14,34,20.40
2008,07,25,14,35,20.40
2008,07,25,14,36,20.50
2008,07,25,14,37,20.70
2008,07,25,14,38,20.70
2008,07,25,14,39,20.80
2008,07,25,14,40,20.90
2008,07,25,14,41,21.00
2008,07,25,14,42,20.90
2008,07,25,14,43,20.90
2008,07,25,14,44,21.00
2008,07,25,14,45,21.10
2008,07,25,14,46,21.20
2008,07,25,14,47,21.30
2008,07,25,14,48,21.30
2008,07,25,14,49,21.30
2008,07,25,14,50,21.30
2008,07,25,14,51,21.30
2008,07,25,14,52,21.30
2008,07,25,14,53,21.30
2008,07,25,14,54,21.40
2008,07,25,14,55,21.40
2008,07,25,14,56,21.40
2008,07,25,14,57,21.40
2008,07,25,14,58,21.40
2008,07,25,14,59,21.40
2008,07,25,15,00,21.40
2008,07,25,15,01,21.30
2008,07,25,15,02,21.30
2008,07,25,15,03,21.20
2008,07,25,15,04,21.00
2008,07,25,15,05,21.00
2008,07,25,15,06,21.00
2008,07,25,15,07,21.00
2008,07,25,15,08,21.00
2008,07,25,15,09,21.00
2008,07,25,15,10,21.00
2008,07,25,15,11,20.80
2008,07,25,15,12,20.70
2008,07,25,15,13,20.50
2008,07,25,15,14,20.40
2008,07,25,15,15,20.40
2008,07,25,15,16,20.40
2008,07,25,15,17,20.30
2008,07,25,15,18,20.30
2008,07,25,15,19,20.30
2008,07,25,15,20,20.20
2008,07,25,15,21,20.20
2008,07,25,15,22,20.20
2008,07,25,15,23,20.20
2008,07,25,15,24,20.20
2008,07,25,15,25,20.20
2008,07,25,15,26,20.10
2008,07,25,15,27,20.10
2008,07,25,15,28,19.90
2008,07,25,15,29,19.90
2008,07,25,15,30,19.90
2008,07,25,15,31,19.90
2008,07,25,15,32,19.90
2008,07,25,15,33,19.90
2008,07,25,15,34,19.90
2008,07,25,15,35,19.90
2008,07,25,15,36,19.90
2008,07,25,15,37,19.90
2008,07,25,15,38,19.90
2008,07,25,15,39,19.80
2008,07,25,15,40,19.80
2008,07,25,15,41,19.80
2008,07,25,15,42,19.80
2008,07,25,15,43,19.80
2008,07,25,15,44,19.80
2008,07,25,15,45,19.80
2008,07,25,15,46,19.80
2008,07,25,15,47,19.80
2008,07,25,15,48,19.80
2008,07,25,15,49,19.80
2008,07,25,15,50,19.80
2008,07,25,15,51,19.70
2008,07,25,15,52,19.70
2008,07,25,15,53,19.70
2008,07,25,15,54,19.80
2008,07,25,15,55,19.80
2008,07,25,15,56,19.80
2008,07,25,15,57,19.80
2008,07,25,15,58,19.90
2008,07,25,15,59,19.90
2008,07,25,16,00,19.90
2008,07,25,16,01,20.00
2008,07,25,16,02,20.20
2008,07,25,16,03,20.20
2008,07,25,16,04,20.20
2008,07,25,16,05,20.30
2008,07,25,16,06,20.40
2008,07,25,16,07,20.50
2008,07,25,16,08,20.50
2008,07,25,16,09,20.70
2008,07,25,16,10,20.80
2008,07,25,16,11,21.00
2008,07,25,16,12,21.10
2008,07,25,16,13,21.20
2008,07,25,16,14,21.30
2008,07,25,16,15,21.30
2008,07,25,16,16,21.20
2008,07,25,16,17,21.20
2008,07,25,16,18,21.20
2008,07,25,16,19,21.20
2008,07,25,16,20,21.20
2008,07,25,16,21,21.20
2008,07,25,16,22,21.30
2008,07,25,16,23,21.30
2008,07,25,16,24,21.30
2008,07,25,16,25,21.30
2008,07,25,16,26,21.40
2008,07,25,16,27,21.50
2008,07,25,16,28,21.60
2008,07,25,16,29,21.60
2008,07,25,16,30,21.60
2008,07,25,16,31,21.60
2008,07,25,16,32,21.60
2008,07,25,16,33,21.60
2008,07,25,16,34,21.60
2008,07,25,16,35,21.70
2008,07,25,16,36,21.80
2008,07,25,16,37,21.90
2008,07,25,16,38,21.80
2008,07,25,16,39,21.80
2008,07,25,16,40,21.80
2008,07,25,16,41,21.80
2008,07,25,16,42,21.90
2008,07,25,16,43,21.90
2008,07,25,16,44,22.00
2008,07,25,16,45,22.00
2008,07,25,16,46,22.10
2008,07,25,16,47,22.10
2008,07,25,16,48,22.10
2008,07,25,16,49,22.10
2008,07,25,16,50,22.10
2008,07,25,16,51,22.10
2008,07,25,16,52,22.10
2008,07,25,16,53,22.10
2008,07,25,16,54,22.20
2008,07,25,16,55,22.10
2008,07,25,16,56,22.10
2008,07,25,16,57,22.10
2008,07,25,16,58,22.10
2008,07,25,16,59,22.10
2008,07,25,17,00,22.00
2008,07,25,17,01,22.00
2008,07,25,17,02,21.90
2008,07,25,17,03,21.90
2008,07,25,17,04,21.80
2008,07,25,17,05,21.80
2008,07,25,17,06,21.70
2008,07,25,17,07,21.70
2008,07,25,17,08,21.70
2008,07,25,17,09,21.60
2008,07,25,17,10,21.60
2008,07,25,17,11,21.60
2008,07,25,17,12,21.60
2008,07,25,17,13,21.60
2008,07,25,17,14,21.60
2008,07,25,17,15,21.60
2008,07,25,17,16,21.60
2008,07,25,17,17,21.60
2008,07,25,17,18,21.40
2008,07,25,17,19,21.40